Flag for Germany Weather past 2 weeks in Osterholz-Scharmbeck, Lower Saxony, Germany

Now
61 °F

Clear.


Feels Like: 61 °F
Forecast: 58 / 82 °F
Wind: 3 mph from East

Location: Bremen

Current Time: Jul 1, 2015 at 12:28:44 AM

Latest Report: Jul 1, 2015 at 12:00 AM


Visibility: 25 mi

Pressure: 30.19 "Hg

Humidity: 69%

Dew point: 51 °F

Location of Osterholz-ScharmbeckLocation

Historic Weather in Osterholz-Scharmbeck — Graph

°F

Osterholz-Scharmbeck temperature yesterday

Maximum temperature yesterday: 75 °F (at 4:00 PM)
Minimum temperature yesterday: 49 °F (at 5:00 AM)
Average temperature yesterday: 65 °F

Past Weeks' High & Low Weather Summary

 TemperatureHumidityPressure
High76 °F (Jun 29, 4:00 PM)100% (Jun 17, 4:00 AM)30.29 "Hg (Jun 17, 4:00 AM)
Low42 °F (Jun 17, 5:00 AM)38% (Jun 30, 4:00 PM)29.66 "Hg (Jun 22, 9:00 PM)
Average59 °F75%30.05 "Hg
* Reported Midnight between Jun 15 and Jun 16 — Jun 30 11:00 PM, Osterholz-Scharmbeck, Weather by CustomWeather, © 2015

Note: Actual official high and low records may vary slightly from our data, if they occured in-between our weather recording intervals... More about our weather records

Advertising

Osterholz-Scharmbeck weather history for previous 24 hours

 ConditionsComfort  
Time TempWeatherWind HumidityBarometerVisibility
11:00 PM
Tue, Jun 30
65 °FClear.3 mph60%30.20 "Hg25 mi
10:00 PM68 °FClear.5 mph52%30.19 "Hg25 mi
9:00 PM70 °FSunny.6 mph52%30.18 "Hg19 mi
8:00 PM73 °FPassing clouds.6 mph46%30.18 "Hg19 mi
7:00 PM74 °FPassing clouds.6 mph45%30.18 "Hg25 mi
6:00 PM75 °FPassing clouds.5 mph43%30.19 "Hg25 mi
4:00 PM75 °FPassing clouds.3 mph38%30.20 "Hg25 mi
3:00 PM74 °FPassing clouds.3 mph40%30.21 "Hg25 mi
2:00 PM74 °FPassing clouds.3 mph42%30.21 "Hg25 mi
1:00 PM73 °FPassing clouds.5 mph43%30.22 "Hg25 mi
12:00 PM71 °FScattered clouds.3 mph43%30.23 "Hg25 mi
10:00 AM67 °FPassing clouds.2 mph54%30.23 "Hg25 mi
9:00 AM65 °FPassing clouds.1 mph61%30.23 "Hg19 mi
8:00 AM60 °FPassing clouds.1 mph78%30.22 "Hg16 mi
7:00 AM54 °FPassing clouds.1 mph92%30.22 "Hg11 mi
6:00 AM50 °FFog.2 mph97%30.22 "Hg11 mi
5:00 AM49 °FFog.1 mph99%30.21 "Hg1 mi
4:00 AM52 °FFog.1 mph99%30.20 "Hg22 mi
3:00 AM52 °FPassing clouds.2 mph97%30.21 "Hg25 mi
2:00 AM56 °FPassing clouds.1 mph85%30.20 "Hg22 mi
1:00 AM60 °FOvercast.3 mph77%30.21 "Hg22 mi
12:00 AM62 °FOvercast.3 mph74%30.22 "Hg22 mi
Weather by CustomWeather, © 2015

See weather overviewHow to use our weather pages